{"data":{"norad_id":53653,"epoch":"2026-09-20T11:50:03.094368Z","epoch_age_seconds":81871,"freshness":"FRESH","line1":"1 53653U 22105F   26263.49309137  .00461692  10691-3  55481-3 0  9991","line2":"2 53653  97.5874 154.8338 0002113 161.6505 198.4853 16.08329189223357","mean_motion":16.08329189,"eccentricity":0.0002113,"inclination_deg":97.5874,"raan_deg":154.8338,"arg_perigee_deg":161.6505,"mean_anomaly_deg":198.4853,"bstar":0.00055481,"rev_number":22335,"period_min":89.533909466341,"perigee_km":250.02990537689,"apogee_km":252.83156070087,"semimajor_km":6629.5677330389,"source":"CELESTRAK","updated_at":"2026-09-21T09:00:32.950030Z"}}